KC5DAQ-22 Weather Reports


time (UTC)temp
C
wind
direction
speed
KPH
gust
KPH
rain 1hr
cm
rain 24hr
cm
rain mn
cm
humidity
%
barometer
mb
20260505015103 23 118 8.0 29.0 0.00 0.00 0.00 76 1009.0
20260505015004 23 86 8.0 29.0 0.00 0.00 0.00 76 1009.0
20260505014902 23 110 8.0 29.0 0.00 0.00 0.00 76 1008.9
20260505014802 23 104 9.7 29.0 0.00 0.00 0.00 76 1008.9
20260505014702 23 93 12.9 29.0 0.00 0.00 0.00 76 1008.9
20260505014602 23 100 12.9 30.6 0.00 0.00 0.00 76 1008.8
20260505014502 23 221 12.9 30.6 0.00 0.00 0.00 76 1008.9
20260505014403 23 165 16.1 30.6 0.00 0.00 0.00 76 1008.9
20260505014302 23 172 16.1 30.6 0.00 0.00 0.00 76 1008.9
20260505014202 23 182 11.3 30.6 0.00 0.00 0.00 76 1008.9
20260505014103 23 175 9.7 30.6 0.00 0.00 0.00 76 1008.7
20260505014004 23 164 11.3 30.6 0.00 0.00 0.00 76 1008.8
20260505013902 23 147 12.9 30.6 0.00 0.00 0.00 76 1008.8
20260505013802 23 166 14.5 30.6 0.00 0.00 0.00 76 1008.7
20260505013703 23 164 14.5 30.6 0.00 0.00 0.00 76 1008.7
20260505013601 23 164 11.3 24.1 0.00 0.00 0.00 76 1008.7
20260505013504 23 186 8.0 24.1 0.00 0.00 0.00 76 1008.7
20260505013403 23 128 8.0 24.1 0.00 0.00 0.00 76 1008.7
20260505013303 23 168 8.0 24.1 0.00 0.00 0.00 76 1008.7
20260505013203 23 154 9.7 24.1 0.00 0.00 0.00 76 1008.7
20260505013102 23 224 9.7 24.1 0.00 0.00 0.00 76 1008.6
20260505013002 23 138 9.7 24.1 0.00 0.00 0.00 76 1008.7
20260505012902 23 171 6.4 24.1 0.00 0.00 0.00 76 1008.6
20260505012802 23 148 9.7 24.1 0.00 0.00 0.00 76 1008.6
20260505012703 23 162 14.5 24.1 0.00 0.00 0.00 76 1008.4
20260505012603 23 171 9.7 22.5 0.00 0.00 0.00 76 1008.5
20260505012504 23 137 9.7 20.9 0.00 0.00 0.00 76 1008.5
20260505012402 23 111 8.0 20.9 0.00 0.00 0.00 76 1008.6
20260505012304 23 154 6.4 20.9 0.00 0.00 0.00 76 1008.6
20260505012202 23 121 8.0 20.9 0.00 0.00 0.00 76 1008.6
20260505012103 23 79 8.0 20.9 0.00 0.00 0.00 76 1008.6
20260505012004 23 96 8.0 20.9 0.00 0.00 0.00 76 1008.6
20260505011903 23 107 8.0 20.9 0.00 0.00 0.00 76 1008.6
20260505011802 23 85 8.0 20.9 0.00 0.00 0.00 76 1008.7
20260505011702 23 97 8.0 20.9 0.00 0.00 0.00 76 1008.7
20260505011603 23 75 9.7 20.9 0.00 0.00 0.00 76 1008.8
20260505011504 23 83 11.3 20.9 0.00 0.00 0.00 76 1008.8
20260505011403 23 93 9.7 20.9 0.00 0.00 0.00 76 1008.8
20260505011303 23 78 9.7 19.3 0.00 0.00 0.00 76 1008.7
20260505011202 23 41 9.7 19.3 0.00 0.00 0.00 76 1008.8
20260505011103 23 65 9.7 17.7 0.00 0.00 0.00 76 1008.7
20260505011003 23 76 8.0 22.5 0.00 0.00 0.00 76 1008.7
20260505010902 23 123 6.4 22.5 0.00 0.00 0.00 76 1008.7
20260505010801 23 49 8.0 22.5 0.00 0.00 0.00 76 1008.7
20260505010702 23 103 8.0 22.5 0.00 0.00 0.00 76 1008.7
20260505010603 23 113 8.0 22.5 0.00 0.00 0.00 76 1008.6
20260505010502 23 94 9.7 22.5 0.00 0.00 0.00 75 1008.7
20260505010402 23 90 11.3 27.4 0.00 0.00 0.00 75 1008.7
20260505010303 23 71 11.3 27.4 0.00 0.00 0.00 75 1008.7
20260505010202 23 155 9.7 27.4 0.00 0.00 0.00 75 1008.7
20260505010103 23 135 9.7 27.4 0.00 0.00 0.00 75 1008.7
20260505010004 23 83 11.3 27.4 0.00 0.00 0.00 75 1008.7
20260505005902 23 120 11.3 27.4 0.00 0.00 0.00 75 1008.8
20260505005802 23 97 9.7 27.4 0.00 0.00 0.00 75 1008.7
20260505005702 23 100 8.0 27.4 0.00 0.00 0.00 75 1008.6
20260505005603 23 35 11.3 27.4 0.00 0.00 0.00 75 1008.6
20260505005502 23 103 11.3 27.4 0.00 0.00 0.00 75 1008.6
20260505005403 23 103 9.7 24.1 0.00 0.00 0.00 75 1008.6
20260505005303 23 71 9.7 24.1 0.00 0.00 0.00 75 1008.5
20260505005203 23 154 9.7 24.1 0.00 0.00 0.00 75 1008.6
20260505005104 23 186 11.3 24.1 0.00 0.00 0.00 75 1008.5
20260505005004 23 212 11.3 24.1 0.00 0.00 0.00 75 1008.6
20260505004902 23 172 11.3 19.3 0.00 0.00 0.00 75 1008.5
20260505004804 23 157 9.7 19.3 0.00 0.00 0.00 75 1008.6
20260505004702 23 154 6.4 17.7 0.00 0.00 0.00 75 1008.5
20260505004604 23 151 8.0 17.7 0.00 0.00 0.00 75 1008.5
20260505004503 23 173 9.7 17.7 0.00 0.00 0.00 75 1008.5
20260505004401 24 158 6.4 17.7 0.00 0.00 0.00 75 1008.4
20260505004302 23 172 6.4 22.5 0.00 0.00 0.00 75 1008.4
20260505004202 24 209 6.4 22.5 0.00 0.00 0.00 75 1008.4
20260505004102 24 173 6.4 29.0 0.00 0.00 0.00 75 1008.4
20260505004002 24 166 8.0 29.0 0.00 0.00 0.00 74 1008.4
20260505003903 24 233 8.0 29.0 0.00 0.00 0.00 75 1008.4
20260505003802 24 24 6.4 29.0 0.00 0.00 0.00 74 1008.4
20260505003703 24 131 6.4 29.0 0.00 0.00 0.00 74 1008.4
20260505003603 24 251 6.4 29.0 0.00 0.00 0.00 74 1008.4
20260505003504 24 214 8.0 29.0 0.00 0.00 0.00 74 1008.4
20260505003404 24 348 11.3 29.0 0.00 0.00 0.00 74 1008.4
20260505003302 24 151 12.9 29.0 0.00 0.00 0.00 74 1008.5
20260505003203 24 233 11.3 29.0 0.00 0.00 0.00 74 1008.5
20260505003102 24 152 8.0 25.7 0.00 0.00 0.00 74 1008.5
20260505003002 24 169 6.4 25.7 0.00 0.00 0.00 74 1008.4
20260505002903 24 75 11.3 25.7 0.00 0.00 0.00 73 1008.4
20260505002803 24 207 14.5 25.7 0.00 0.00 0.00 74 1008.5
20260505002701 24 200 12.9 25.7 0.00 0.00 0.00 74 1008.4
20260505002601 24 141 12.9 20.9 0.00 0.00 0.00 73 1008.5
20260505002504 24 106 11.3 20.9 0.00 0.00 0.00 73 1008.4
20260505002402 24 141 8.0 20.9 0.00 0.00 0.00 73 1008.4
20260505002303 24 188 6.4 22.5 0.00 0.00 0.00 73 1008.5
20260505002203 24 89 9.7 22.5 0.00 0.00 0.00 73 1008.5
20260505002102 24 180 11.3 22.5 0.00 0.00 0.00 73 1008.5
20260505002003 24 118 9.7 22.5 0.00 0.00 0.00 73 1008.6
20260505001904 24 151 9.7 22.5 0.00 0.00 0.00 73 1008.5
20260505001802 24 175 9.7 22.5 0.00 0.00 0.00 73 1008.6
20260505001703 24 186 12.9 22.5 0.00 0.00 0.00 73 1008.6
20260505001602 24 165 11.3 22.5 0.00 0.00 0.00 73 1008.5
20260505001505 24 128 12.9 22.5 0.00 0.00 0.00 73 1008.6
20260505001403 25 157 12.9 22.5 0.00 0.00 0.00 73 1008.5
20260505001301 25 203 11.3 22.5 0.00 0.00 0.00 73 1008.6
20260505001202 25 149 9.7 19.3 0.00 0.00 0.00 73 1008.5
20260505001102 25 161 9.7 19.3 0.00 0.00 0.00 73 1008.5
20260505001002 25 188 11.3 22.5 0.00 0.00 0.00 73 1008.6
20260505000901 25 207 9.7 24.1 0.00 0.00 0.00 73 1008.7
20260505000759 25 154 8.0 24.1 0.00 0.00 0.00 73 1008.6
20260505000657 25 149 6.4 24.1 0.00 0.00 0.00 73 1008.7
20260505000557 25 164 6.4 27.4 0.00 0.00 0.00 73 1008.7
20260505000456 25 206 11.3 27.4 0.00 0.00 0.00 73 1008.6
20260505000353 25 168 11.3 27.4 0.00 0.00 0.00 72 1008.6
20260505000250 25 147 9.7 27.4 0.00 0.00 0.00 72 1008.6
20260505000145 25 152 12.9 27.4 0.00 0.00 0.00 72 1008.6
20260505000045 25 75 12.9 27.4 0.00 0.00 0.00 72 1008.6
20260504235946 25 166 11.3 27.4 0.00 0.00 0.00 72 1008.6
20260504235845 25 169 11.3 27.4 0.00 0.00 0.00 72 1008.6
20260504235744 25 80 11.3 27.4 0.00 0.00 0.00 72 1008.5
20260504235645 25 213 9.7 27.4 0.00 0.00 0.00 72 1008.6
20260504235545 25 133 9.7 25.7 0.00 0.00 0.00 72 1008.5
20260504235446 25 141 9.7 25.7 0.00 0.00 0.00 72 1008.5
20260504235344 25 120 8.0 25.7 0.00 0.00 0.00 72 1008.6
20260504235245 25 147 9.7 25.7 0.00 0.00 0.00 72 1008.5
20260504235144 25 125 11.3 25.7 0.00 0.00 0.00 72 1008.6
20260504235044 25 178 9.7 25.7 0.00 0.00 0.00 72 1008.6
20260504234944 25 96 8.0 25.7 0.00 0.00 0.00 72 1008.6
20260504234844 25 147 11.3 25.7 0.00 0.00 0.00 72 1008.6
20260504234746 25 179 12.9 25.7 0.00 0.00 0.00 72 1008.7
20260504234646 25 159 9.7 20.9 0.00 0.00 0.00 72 1008.6
20260504234545 25 165 9.7 20.9 0.00 0.00 0.00 72 1008.6
20260504234445 25 157 8.0 20.9 0.00 0.00 0.00 72 1008.8
20260504234345 25 127 6.4 20.9 0.00 0.00 0.00 72 1008.7
20260504234247 25 176 8.0 20.9 0.00 0.00 0.00 72 1008.7
20260504234145 25 196 8.0 20.9 0.00 0.00 0.00 72 1008.7
20260504234044 25 120 9.7 20.9 0.00 0.00 0.00 72 1008.7
20260504233944 25 171 9.7 20.9 0.00 0.00 0.00 72 1008.7
20260504233845 25 141 8.0 24.1 0.00 0.00 0.00 72 1008.7
20260504233744 25 55 8.0 24.1 0.00 0.00 0.00 72 1008.7
20260504233644 25 123 8.0 24.1 0.00 0.00 0.00 72 1008.7
20260504233545 25 85 8.0 24.1 0.00 0.00 0.00 72 1008.8
20260504233445 25 173 9.7 24.1 0.00 0.00 0.00 72 1008.8
20260504233344 25 172 9.7 24.1 0.00 0.00 0.00 72 1008.8
20260504233244 25 186 8.0 24.1 0.00 0.00 0.00 72 1008.8
20260504233146 25 121 9.7 27.4 0.00 0.00 0.00 72 1008.8
20260504233045 25 100 12.9 27.4 0.00 0.00 0.00 72 1008.8
20260504232944 25 123 9.7 27.4 0.00 0.00 0.00 72 1008.8
20260504232847 25 56 8.0 27.4 0.00 0.00 0.00 71 1008.8
20260504232744 25 89 12.9 27.4 0.00 0.00 0.00 71 1008.8
20260504232646 25 164 14.5 27.4 0.00 0.00 0.00 71 1008.8
20260504232545 25 144 12.9 27.4 0.00 0.00 0.00 71 1008.7
20260504232445 25 162 9.7 27.4 0.00 0.00 0.00 71 1008.7
20260504232344 25 130 12.9 27.4 0.00 0.00 0.00 71 1008.8
20260504232244 25 130 14.5 27.4 0.00 0.00 0.00 71 1008.9
20260504232144 25 71 12.9 24.1 0.00 0.00 0.00 71 1008.8
20260504232043 25 158 11.3 24.1 0.00 0.00 0.00 71 1008.9
20260504231942 25 85 9.7 22.5 0.00 0.00 0.00 71 1008.9
20260504231840 25 127 9.7 22.5 0.00 0.00 0.00 71 1008.9
20260504231740 25 97 6.4 22.5 0.00 0.00 0.00 71 1008.9
20260504231637 25 288 6.4 22.5 0.00 0.00 0.00 71 1008.9
20260504231535 25 116 8.0 22.5 0.00 0.00 0.00 70 1008.8
20260504231435 25 186 9.7 22.5 0.00 0.00 0.00 70 1008.8
20260504231333 25 125 12.9 22.5 0.00 0.00 0.00 70 1008.8
20260504231232 25 252 11.3 22.5 0.00 0.00 0.00 70 1008.8
20260504231132 25 159 9.7 20.9 0.00 0.00 0.00 70 1008.9
20260504231031 25 159 11.3 20.9 0.00 0.00 0.00 70 1008.9
20260504230932 25 203 9.7 22.5 0.00 0.00 0.00 70 1009.0
20260504230831 25 152 9.7 22.5 0.00 0.00 0.00 70 1009.1
20260504230731 25 166 9.7 22.5 0.00 0.00 0.00 70 1009.1
20260504230634 25 127 9.7 22.5 0.00 0.00 0.00 70 1009.0
20260504230531 25 178 11.3 22.5 0.00 0.00 0.00 70 1009.0
20260504230430 25 149 9.7 22.5 0.00 0.00 0.00 70 1009.1
20260504230331 25 289 11.3 22.5 0.00 0.00 0.00 70 1009.0
20260504230232 25 186 9.7 22.5 0.00 0.00 0.00 70 1009.0
20260504230133 25 169 9.7 22.5 0.00 0.00 0.00 70 1008.9
20260504230031 25 159 11.3 22.5 0.00 0.00 0.00 70 1009.0
20260504225932 25 154 11.3 22.5 0.00 0.00 0.00 69 1009.0
20260504225832 25 190 11.3 20.9 0.00 0.00 0.00 69 1008.8
20260504225731 25 203 9.7 22.5 0.00 0.00 0.00 69 1008.9
20260504225632 25 185 11.3 22.5 0.00 0.00 0.00 69 1008.9
20260504225532 25 155 9.7 22.5 0.00 0.00 0.00 69 1008.9
20260504225431 26 155 9.7 25.7 0.00 0.00 0.00 69 1008.8
20260504225331 26 93 11.3 25.7 0.00 0.00 0.00 69 1008.9
20260504225231 26 158 11.3 25.7 0.00 0.00 0.00 69 1008.9
20260504225131 26 165 11.3 25.7 0.00 0.00 0.00 69 1008.9
20260504225031 26 159 11.3 25.7 0.00 0.00 0.00 69 1009.0
20260504224932 26 96 11.3 25.7 0.00 0.00 0.00 68 1009.1
20260504224831 26 164 11.3 25.7 0.00 0.00 0.00 68 1009.1
20260504224732 26 158 12.9 25.7 0.00 0.00 0.00 68 1009.1
20260504224631 26 152 12.9 25.7 0.00 0.00 0.00 68 1009.1
20260504224532 26 69 9.7 25.7 0.00 0.00 0.00 68 1009.1
20260504224431 26 159 6.4 19.3 0.00 0.00 0.00 68 1009.1
20260504224331 26 155 6.4 29.0 0.00 0.00 0.00 69 1009.2
20260504224233 26 159 8.0 29.0 0.00 0.00 0.00 68 1009.1
20260504224132 26 107 11.3 29.0 0.00 0.00 0.00 68 1009.1
20260504224031 26 224 11.3 29.0 0.00 0.00 0.00 68 1009.2
20260504223932 26 113 4.8 29.0 0.00 0.00 0.00 68 1009.1
20260504223831 26 113 4.8 29.0 0.00 0.00 0.00 68 1009.1
20260504223731 26 82 4.8 29.0 0.00 0.00 0.00 68 1009.1
20260504223631 26 140 8.0 29.0 0.00 0.00 0.00 68 1009.1
20260504223533 26 120 12.9 29.0 0.00 0.00 0.00 67 1009.1
20260504223431 26 175 12.9 29.0 0.00 0.00 0.00 67 1009.1
20260504223329 26 190 11.3 25.7 0.00 0.00 0.00 67 1009.2
20260504223227 26 154 9.7 25.7 0.00 0.00 0.00 67 1009.2
20260504223127 26 130 9.7 25.7 0.00 0.00 0.00 67 1009.2
20260504223025 26 100 9.7 25.7 0.00 0.00 0.00 68 1009.2
20260504222924 26 209 9.7 25.7 0.00 0.00 0.00 67 1009.2
20260504222821 26 231 9.7 25.7 0.00 0.00 0.00 67 1009.3
20260504222720 26 172 11.3 25.7 0.00 0.00 0.00 67 1009.3
20260504222618 26 282 14.5 25.7 0.00 0.00 0.00 66 1009.2
20260504222518 26 175 12.9 24.1 0.00 0.00 0.00 66 1009.3
20260504222416 26 118 9.7 22.5 0.00 0.00 0.00 66 1009.2
20260504222314 26 238 8.0 20.9 0.00 0.00 0.00 67 1009.2
20260504222212 26 128 9.7 20.9 0.00 0.00 0.00 67 1009.3
20260504222111 26 172 9.7 20.9 0.00 0.00 0.00 66 1009.3
20260504222010 26 75 9.7 27.4 0.00 0.00 0.00 65 1009.4
20260504221907 26 162 8.0 27.4 0.00 0.00 0.00 65 1009.3
20260504221808 26 133 8.0 27.4 0.00 0.00 0.00 66 1009.4
20260504221705 26 182 11.3 27.4 0.00 0.00 0.00 65 1009.3
20260504221604 26 161 14.5 27.4 0.00 0.00 0.00 65 1009.3
20260504221504 26 154 9.7 27.4 0.00 0.00 0.00 65 1009.4
20260504221403 26 189 6.4 27.4 0.00 0.00 0.00 65 1009.4
20260504221303 26 276 9.7 27.4 0.00 0.00 0.00 65 1009.4
20260504221203 26 176 14.5 27.4 0.00 0.00 0.00 64 1009.4
20260504221103 26 204 16.1 27.4 0.00 0.00 0.00 64 1009.5
20260504221003 26 172 12.9 24.1 0.00 0.00 0.00 64 1009.5
20260504220903 26 164 12.9 20.9 0.00 0.00 0.00 64 1009.4
20260504220803 26 148 9.7 20.9 0.00 0.00 0.00 63 1009.4
20260504220702 26 151 6.4 17.7 0.00 0.00 0.00 64 1009.4
20260504220602 27 213 6.4 20.9 0.00 0.00 0.00 64 1009.4
20260504220504 26 142 6.4 22.5 0.00 0.00 0.00 64 1009.4
20260504220402 27 144 9.7 22.5 0.00 0.00 0.00 64 1009.4
20260504220302 27 145 9.7 22.5 0.00 0.00 0.00 63 1009.5
20260504220202 27 274 11.3 22.5 0.00 0.00 0.00 62 1009.5
20260504220003 27 274 11.3 22.5 0.00 0.00 0.00 62 1009.4
20260504215904 27 274 11.3 22.5 0.00 0.00 0.00 62 1009.4
20260504215802 27 200 11.3 22.5 0.00 0.00 0.00 62 1009.4
20260504215702 27 212 12.9 22.5 0.00 0.00 0.00 61 1009.4
20260504215602 27 202 12.9 22.5 0.00 0.00 0.00 61 1009.4
20260504215504 27 233 9.7 20.9 0.00 0.00 0.00 62 1009.4
20260504215403 27 114 8.0 20.9 0.00 0.00 0.00 62 1009.4
20260504215304 27 159 8.0 20.9 0.00 0.00 0.00 62 1009.4
20260504215204 27 147 9.7 20.9 0.00 0.00 0.00 61 1009.5
20260504215104 27 123 9.7 20.9 0.00 0.00 0.00 61 1009.5
20260504215003 27 158 9.7 20.9 0.00 0.00 0.00 61 1009.4
20260504214903 27 210 11.3 29.0 0.00 0.00 0.00 61 1009.5
20260504214803 27 196 11.3 29.0 0.00 0.00 0.00 60 1009.5
20260504214702 27 240 9.7 29.0 0.00 0.00 0.00 61 1009.5
20260504214602 27 202 6.4 29.0 0.00 0.00 0.00 61 1009.5
20260504214504 27 111 9.7 29.0 0.00 0.00 0.00 61 1009.5
20260504214403 27 141 9.7 29.0 0.00 0.00 0.00 60 1009.5
20260504214303 27 189 8.0 29.0 0.00 0.00 0.00 61 1009.4
20260504214204 27 180 9.7 29.0 0.00 0.00 0.00 61 1009.5
20260504214102 27 157 11.3 29.0 0.00 0.00 0.00 61 1009.5
20260504214003 27 137 11.3 29.0 0.00 0.00 0.00 61 1009.6
20260504213902 27 130 9.7 20.9 0.00 0.00 0.00 61 1009.6
20260504213803 27 85 9.7 22.5 0.00 0.00 0.00 61 1009.5
20260504213702 27 121 9.7 24.1 0.00 0.00 0.00 61 1009.5
20260504213602 27 111 11.3 24.1 0.00 0.00 0.00 60 1009.6
20260504213503 27 71 9.7 24.1 0.00 0.00 0.00 60 1009.6
20260504213403 27 86 8.0 24.1 0.00 0.00 0.00 60 1009.6
20260504213304 27 120 6.4 24.1 0.00 0.00 0.00 60 1009.7
20260504213202 27 116 8.0 24.1 0.00 0.00 0.00 60 1009.7
20260504213102 27 99 11.3 25.7 0.00 0.00 0.00 60 1009.6
20260504213002 27 93 11.3 25.7 0.00 0.00 0.00 60 1009.7
20260504212903 27 180 11.3 25.7 0.00 0.00 0.00 60 1009.7
20260504212802 27 137 9.7 25.7 0.00 0.00 0.00 60 1009.6
20260504212702 27 100 8.0 25.7 0.00 0.00 0.00 61 1009.6
20260504212603 27 133 9.7 25.7 0.00 0.00 0.00 60 1009.7
20260504212502 27 159 8.0 25.7 0.00 0.00 0.00 60 1009.7
20260504212403 27 130 9.7 25.7 0.00 0.00 0.00 59 1009.7
20260504212304 27 202 14.5 25.7 0.00 0.00 0.00 59 1009.7
20260504212202 27 157 14.5 25.7 0.00 0.00 0.00 58 1009.7
20260504212105 27 190 11.3 22.5 0.00 0.00 0.00 59 1009.7
20260504212004 27 265 8.0 19.3 0.00 0.00 0.00 58 1009.7
20260504211902 27 94 8.0 19.3 0.00 0.00 0.00 59 1009.7
20260504211803 27 130 8.0 19.3 0.00 0.00 0.00 60 1009.7
20260504211702 27 217 9.7 19.3 0.00 0.00 0.00 59 1009.8
20260504211602 27 107 9.7 20.9 0.00 0.00 0.00 58 1009.8
20260504211503 27 99 9.7 25.7 0.00 0.00 0.00 58 1009.9
20260504211402 28 96 9.7 25.7 0.00 0.00 0.00 57 1009.9
20260504211301 28 140 8.0 25.7 0.00 0.00 0.00 58 1009.9
20260504211200 28 140 9.7 25.7 0.00 0.00 0.00 57 1010.0
20260504211059 28 147 11.3 27.4 0.00 0.00 0.00 57 1009.9
20260504210956 28 96 9.7 27.4 0.00 0.00 0.00 57 1010.0
20260504210854 28 97 9.7 27.4 0.00 0.00 0.00 59 1009.9
20260504210754 28 171 12.9 27.4 0.00 0.00 0.00 58 1010.0
20260504210653 28 200 16.1 27.4 0.00 0.00 0.00 58 1010.0
20260504210550 27 199 14.5 27.4 0.00 0.00 0.00 58 1009.9
20260504210449 27 206 8.0 27.4 0.00 0.00 0.00 60 1010.0
20260504210349 27 173 8.0 27.4 0.00 0.00 0.00 59 1010.0
20260504210247 27 148 11.3 27.4 0.00 0.00 0.00 58 1010.0
20260504210145 27 197 12.9 27.4 0.00 0.00 0.00 58 1009.9
20260504210046 27 165 11.3 20.9 0.00 0.00 0.00 59 1010.0
20260504205940 27 185 11.3 20.9 0.00 0.00 0.00 58 1010.0
20260504205840 27 190 11.3 20.9 0.00 0.00 0.00 58 1010.0
20260504205741 27 183 9.7 20.9 0.00 0.00 0.00 58 1010.2
20260504205641 27 117 8.0 22.5 0.00 0.00 0.00 59 1010.2
20260504205541 27 96 8.0 22.5 0.00 0.00 0.00 58 1010.1
20260504205440 27 161 9.7 22.5 0.00 0.00 0.00 58 1010.2
20260504205341 28 179 11.3 22.5 0.00 0.00 0.00 57 1010.2
20260504205242 28 120 8.0 22.5 0.00 0.00 0.00 57 1010.2
20260504205142 28 264 6.4 22.5 0.00 0.00 0.00 59 1010.3
20260504205040 28 118 8.0 22.5 0.00 0.00 0.00 59 1010.3
20260504204940 28 168 11.3 22.5 0.00 0.00 0.00 58 1010.2
20260504204841 28 113 12.9 29.0 0.00 0.00 0.00 57 1010.3
20260504204740 28 118 11.3 29.0 0.00 0.00 0.00 57 1010.1
20260504204641 28 121 9.7 29.0 0.00 0.00 0.00 57 1010.2
20260504204541 28 123 9.7 29.0 0.00 0.00 0.00 56 1010.2
20260504204440 28 4 12.9 29.0 0.00 0.00 0.00 55 1010.2
20260504204334 28 168 12.9 29.0 0.00 0.00 0.00 55 1010.3
20260504204234 29 157 9.7 29.0 0.00 0.00 0.00 56 1010.2
20260504204131 29 107 9.7 29.0 0.00 0.00 0.00 56 1010.3
20260504204030 29 250 11.3 29.0 0.00 0.00 0.00 56 1010.3
20260504203932 29 123 9.7 29.0 0.00 0.00 0.00 56 1010.2
20260504203832 28 103 6.4 20.9 0.00 0.00 0.00 55 1010.2
20260504203730 28 178 8.0 20.9 0.00 0.00 0.00 57 1010.2
20260504203631 28 125 8.0 20.9 0.00 0.00 0.00 57 1010.2
20260504203532 28 152 8.0 20.9 0.00 0.00 0.00 58 1010.2
20260504203431 28 149 8.0 20.9 0.00 0.00 0.00 57 1010.2
20260504203331 27 182 8.0 20.9 0.00 0.00 0.00 56 1010.2
20260504203232 28 195 9.7 20.9 0.00 0.00 0.00 56 1010.3
20260504203115 28 164 9.7 24.1 0.00 0.00 0.00 56 1010.4
20260504203015 28 245 9.7 24.1 0.00 0.00 0.00 55 1010.4
20260504202913 28 161 8.0 24.1 0.00 0.00 0.00 55 1010.5
20260504202810 28 212 9.7 24.1 0.00 0.00 0.00 55 1010.5
20260504202709 28 157 11.3 24.1 0.00 0.00 0.00 54 1010.5
20260504202607 29 204 8.0 24.1 0.00 0.00 0.00 54 1010.5
20260504202502 29 178 6.4 24.1 0.00 0.00 0.00 54 1010.5
20260504202403 29 141 8.0 24.1 0.00 0.00 0.00 54 1010.5
20260504202304 29 196 11.3 24.1 0.00 0.00 0.00 54 1010.6
20260504202203 29 226 12.9 24.1 0.00 0.00 0.00 54 1010.5
20260504202102 29 196 8.0 17.7 0.00 0.00 0.00 53 1010.5
20260504202003 29 224 6.4 17.7 0.00 0.00 0.00 56 1010.6
20260504201902 28 226 4.8 17.7 0.00 0.00 0.00 57 1010.7
20260504201803 28 241 4.8 17.7 0.00 0.00 0.00 56 1010.6
20260504201701 28 133 6.4 22.5 0.00 0.00 0.00 56 1010.6
20260504201603 27 145 6.4 22.5 0.00 0.00 0.00 58 1010.6
20260504201502 27 102 9.7 25.7 0.00 0.00 0.00 57 1010.7
20260504201402 27 165 8.0 25.7 0.00 0.00 0.00 57 1010.8
20260504201304 27 189 6.4 25.7 0.00 0.00 0.00 57 1010.8
20260504201203 27 96 8.0 25.7 0.00 0.00 0.00 57 1010.8
20260504201102 27 190 9.7 25.7 0.00 0.00 0.00 56 1010.8
20260504201002 27 133 8.0 25.7 0.00 0.00 0.00 56 1010.8
20260504200903 28 162 11.3 25.7 0.00 0.00 0.00 56 1010.8
20260504200802 28 195 12.9 25.7 0.00 0.00 0.00 54 1010.9
20260504200702 28 161 12.9 25.7 0.00 0.00 0.00 54 1010.9
20260504200604 28 159 12.9 25.7 0.00 0.00 0.00 55 1010.8
20260504200504 28 141 9.7 24.1 0.00 0.00 0.00 56 1010.8
20260504200401 28 159 9.7 24.1 0.00 0.00 0.00 57 1010.9
20260504200301 28 175 9.7 25.7 0.00 0.00 0.00 56 1010.9
20260504200204 28 168 9.7 25.7 0.00 0.00 0.00 57 1011.0
20260504200103 28 71 12.9 25.7 0.00 0.00 0.00 56 1010.9
20260504200004 27 123 12.9 25.7 0.00 0.00 0.00 56 1011.0
20260504195903 27 117 9.7 25.7 0.00 0.00 0.00 56 1011.0
20260504195803 27 180 9.7 25.7 0.00 0.00 0.00 56 1011.0
20260504195702 28 133 9.7 25.7 0.00 0.00 0.00 55 1011.1
20260504195603 28 193 9.7 25.7 0.00 0.00 0.00 55 1011.2
20260504195503 28 165 12.9 25.7 0.00 0.00 0.00 55 1011.1
20260504195402 28 162 12.9 25.7 0.00 0.00 0.00 53 1011.2
20260504195304 28 203 9.7 20.9 0.00 0.00 0.00 53 1011.2
20260504195202 28 148 9.7 20.9 0.00 0.00 0.00 53 1011.1
20260504195102 28 154 8.0 24.1 0.00 0.00 0.00 53 1011.0
20260504195003 28 209 8.0 24.1 0.00 0.00 0.00 53 1011.0
20260504194902 28 233 9.7 24.1 0.00 0.00 0.00 54 1011.0
20260504194802 28 164 9.7 24.1 0.00 0.00 0.00 53 1011.1
20260504194702 28 151 11.3 24.1 0.00 0.00 0.00 54 1011.0
20260504194603 28 172 11.3 24.1 0.00 0.00 0.00 54 1011.0
20260504194504 28 157 12.9 24.1 0.00 0.00 0.00 55 1011.1
20260504194402 28 140 11.3 24.1 0.00 0.00 0.00 55 1011.1
20260504194304 28 162 9.7 24.1 0.00 0.00 0.00 55 1011.1
20260504194203 28 58 11.3 24.1 0.00 0.00 0.00 56 1011.2
20260504194102 28 159 11.3 22.5 0.00 0.00 0.00 56 1011.2
20260504194003 28 178 11.3 22.5 0.00 0.00 0.00 56 1011.2
20260504193901 28 111 9.7 22.5 0.00 0.00 0.00 56 1011.2
20260504193802 28 52 9.7 22.5 0.00 0.00 0.00 55 1011.3
20260504193702 28 154 9.7 22.5 0.00 0.00 0.00 56 1011.3
20260504193602 28 169 9.7 22.5 0.00 0.00 0.00 55 1011.3
20260504193504 28 243 8.0 22.5 0.00 0.00 0.00 56 1011.3
20260504193403 28 193 9.7 22.5 0.00 0.00 0.00 55 1011.3
20260504193302 28 123 12.9 22.5 0.00 0.00 0.00 55 1011.3
20260504193203 28 179 11.3 22.5 0.00 0.00 0.00 56 1011.4
20260504193103 28 111 8.0 19.3 0.00 0.00 0.00 56 1011.3
20260504193004 28 128 6.4 19.3 0.00 0.00 0.00 55 1011.4
20260504192902 28 71 9.7 19.3 0.00 0.00 0.00 54 1011.5
20260504192803 28 148 11.3 19.3 0.00 0.00 0.00 53 1011.4
20260504192703 28 78 9.7 17.7 0.00 0.00 0.00 54 1011.4
20260504192602 28 135 6.4 16.1 0.00 0.00 0.00 53 1011.4
20260504192505 28 223 4.8 19.3 0.00 0.00 0.00 52 1011.4
20260504192404 28 186 6.4 19.3 0.00 0.00 0.00 54 1011.5
20260504192304 28 154 4.8 19.3 0.00 0.00 0.00 55 1011.5
20260504192202 28 82 6.4 19.3 0.00 0.00 0.00 56 1011.5
20260504192104 28 189 9.7 20.9 0.00 0.00 0.00 56 1011.5
20260504192002 28 148 9.7 20.9 0.00 0.00 0.00 56 1011.6
20260504191901 27 145 8.0 20.9 0.00 0.00 0.00 56 1011.7
20260504191801 27 213 8.0 20.9 0.00 0.00 0.00 56 1011.6
20260504191702 27 166 12.9 20.9 0.00 0.00 0.00 55 1011.7
20260504191601 27 171 12.9 22.5 0.00 0.00 0.00 55 1011.6
20260504191503 28 203 9.7 22.5 0.00 0.00 0.00 55 1011.7
20260504191403 28 173 9.7 22.5 0.00 0.00 0.00 54 1011.6
20260504191303 28 199 12.9 22.5 0.00 0.00 0.00 54 1011.6
20260504191202 28 228 11.3 22.5 0.00 0.00 0.00 54 1011.6
20260504191104 28 226 6.4 22.5 0.00 0.00 0.00 54 1011.8
20260504191002 28 243 8.0 22.5 0.00 0.00 0.00 55 1011.8
20260504190902 27 233 11.3 24.1 0.00 0.00 0.00 55 1011.7
20260504190804 28 221 12.9 24.1 0.00 0.00 0.00 54 1011.8
20260504190702 28 165 11.3 24.1 0.00 0.00 0.00 55 1011.9
20260504190603 28 165 9.7 24.1 0.00 0.00 0.00 55 1011.8
20260504190504 27 109 9.7 24.1 0.00 0.00 0.00 56 1011.8
20260504190404 27 154 11.3 24.1 0.00 0.00 0.00 55 1011.8
20260504190301 27 189 12.9 24.1 0.00 0.00 0.00 55 1011.8
20260504190200 27 189 14.5 24.1 0.00 0.00 0.00 55 1011.8
20260504190059 27 202 16.1 24.1 0.00 0.00 0.00 55 1011.8
20260504185956 27 203 14.5 27.4 0.00 0.00 0.00 56 1011.7
20260504185855 27 259 12.9 27.4 0.00 0.00 0.00 55 1011.8
20260504185754 27 234 14.5 27.4 0.00 0.00 0.00 54 1011.9
20260504185652 27 206 14.5 27.4 0.00 0.00 0.00 54 1011.8
20260504185551 27 227 14.5 27.4 0.00 0.00 0.00 53 1011.9
20260504185449 28 206 14.5 27.4 0.00 0.00 0.00 53 1011.9
20260504185348 28 190 12.9 27.4 0.00 0.00 0.00 53 1011.8
20260504185246 28 188 14.5 27.4 0.00 0.00 0.00 52 1011.9
20260504185146 28 214 14.5 27.4 0.00 0.00 0.00 52 1011.9
20260504185045 28 261 14.5 27.4 0.00 0.00 0.00 54 1011.9
20260504184944 28 224 11.3 25.7 0.00 0.00 0.00 53 1011.9
20260504184842 28 173 8.0 27.4 0.00 0.00 0.00 54 1011.9
20260504184740 28 109 6.4 27.4 0.00 0.00 0.00 53 1011.9
20260504184638 28 202 4.8 27.4 0.00 0.00 0.00 53 1011.9
20260504184540 28 117 4.8 27.4 0.00 0.00 0.00 55 1012.0
20260504184437 28 189 9.7 27.4 0.00 0.00 0.00 54 1012.0
20260504184339 28 117 9.7 27.4 0.00 0.00 0.00 55 1012.0
20260504184239 27 142 9.7 27.4 0.00 0.00 0.00 55 1012.0
20260504184138 27 107 12.9 27.4 0.00 0.00 0.00 54 1012.0
20260504184039 27 135 17.7 27.4 0.00 0.00 0.00 54 1012.0
20260504183938 27 161 16.1 27.4 0.00 0.00 0.00 54 1012.0
20260504183837 27 206 12.9 24.1 0.00 0.00 0.00 54 1012.0
20260504183737 27 210 11.3 20.9 0.00 0.00 0.00 55 1012.0
20260504183638 27 213 11.3 20.9 0.00 0.00 0.00 52 1012.0
20260504183537 27 202 11.3 20.9 0.00 0.00 0.00 52 1011.9
20260504183437 28 248 12.9 20.9 0.00 0.00 0.00 52 1012.0
20260504183337 28 235 12.9 20.9 0.00 0.00 0.00 51 1011.9
20260504183238 28 226 11.3 22.5 0.00 0.00 0.00 52 1012.0
20260504183137 28 214 9.7 22.5 0.00 0.00 0.00 54 1012.0
20260504183039 28 162 8.0 25.7 0.00 0.00 0.00 55 1011.9
20260504182938 28 106 6.4 25.7 0.00 0.00 0.00 56 1011.8
20260504182838 28 149 6.4 25.7 0.00 0.00 0.00 56 1011.8
20260504182737 27 276 6.4 25.7 0.00 0.00 0.00 54 1011.8
20260504182639 27 233 6.4 25.7 0.00 0.00 0.00 54 1011.9
20260504182537 27 220 6.4 25.7 0.00 0.00 0.00 54 1011.8
20260504182438 27 233 9.7 25.7 0.00 0.00 0.00 54 1011.9
20260504182335 27 227 12.9 25.7 0.00 0.00 0.00 54 1012.0
20260504182234 27 210 12.9 25.7 0.00 0.00 0.00 54 1012.1
20260504182132 27 162 14.5 25.7 0.00 0.00 0.00 55 1012.1
20260504182030 27 168 14.5 25.7 0.00 0.00 0.00 55 1012.1
20260504181932 27 178 12.9 25.7 0.00 0.00 0.00 56 1012.2
20260504181831 27 154 12.9 25.7 0.00 0.00 0.00 57 1012.2
20260504181730 27 165 11.3 25.7 0.00 0.00 0.00 58 1012.2
20260504181627 27 158 11.3 25.7 0.00 0.00 0.00 58 1012.2
20260504181526 26 172 9.7 25.7 0.00 0.00 0.00 58 1012.2
20260504181425 26 190 11.3 25.7 0.00 0.00 0.00 57 1012.3
20260504181323 27 203 16.1 25.7 0.00 0.00 0.00 56 1012.3
20260504181222 27 182 14.5 25.7 0.00 0.00 0.00 55 1012.3
20260504181120 27 142 11.3 25.7 0.00 0.00 0.00 56 1012.3
20260504181020 27 182 14.5 25.7 0.00 0.00 0.00 55 1012.3
20260504180918 27 193 12.9 25.7 0.00 0.00 0.00 56 1012.3
20260504180816 27 231 9.7 25.7 0.00 0.00 0.00 56 1012.3
20260504180715 27 61 11.3 25.7 0.00 0.00 0.00 56 1012.3
20260504180613 27 56 12.9 25.7 0.00 0.00 0.00 56 1012.3
20260504180513 27 172 12.9 25.7 0.00 0.00 0.00 55 1012.3
20260504180410 27 110 14.5 25.7 0.00 0.00 0.00 57 1012.4
20260504180309 27 168 11.3 25.7 0.00 0.00 0.00 57 1012.4
20260504180207 27 166 9.7 19.3 0.00 0.00 0.00 57 1012.4
20260504180106 27 209 12.9 19.3 0.00 0.00 0.00 57 1012.4
20260504180003 27 188 11.3 19.3 0.00 0.00 0.00 56 1012.5
20260504175904 27 151 9.7 17.7 0.00 0.00 0.00 57 1012.5
20260504175803 27 124 9.7 17.7 0.00 0.00 0.00 57 1012.6
20260504175702 27 124 8.0 17.7 0.00 0.00 0.00 57 1012.5
20260504175603 27 99 6.4 17.7 0.00 0.00 0.00 56 1012.6
20260504175503 27 165 6.4 17.7 0.00 0.00 0.00 58 1012.5
20260504175403 27 104 6.4 17.7 0.00 0.00 0.00 58 1012.5
20260504175304 27 197 8.0 17.7 0.00 0.00 0.00 57 1012.4
20260504175202 27 180 8.0 17.7 0.00 0.00 0.00 57 1012.6
20260504175102 27 220 6.4 17.7 0.00 0.00 0.00 59 1012.6
20260504175004 26 58 8.0 17.7 0.00 0.00 0.00 58 1012.6
20260504174904 26 203 8.0 24.1 0.00 0.00 0.00 57 1012.5
20260504174802 26 221 8.0 24.1 0.00 0.00 0.00 59 1012.6
20260504174702 26 223 6.4 24.1 0.00 0.00 0.00 60 1012.6
20260504174604 26 148 9.7 24.1 0.00 0.00 0.00 59 1012.6
20260504174503 26 123 12.9 24.1 0.00 0.00 0.00 58 1012.6
20260504174402 26 72 9.7 24.1 0.00 0.00 0.00 58 1012.6
20260504174302 26 162 9.7 24.1 0.00 0.00 0.00 57 1012.6
20260504174202 26 147 9.7 24.1 0.00 0.00 0.00 56 1012.7
20260504174102 26 87 9.7 24.1 0.00 0.00 0.00 57 1012.7
20260504174002 27 145 11.3 24.1 0.00 0.00 0.00 56 1012.7
20260504173904 27 172 9.7 22.5 0.00 0.00 0.00 56 1012.7
20260504173803 27 179 11.3 22.5 0.00 0.00 0.00 57 1012.7
20260504173702 27 123 9.7 22.5 0.00 0.00 0.00 56 1012.8
20260504173602 27 165 11.3 22.5 0.00 0.00 0.00 55 1012.8
20260504173504 27 158 12.9 22.5 0.00 0.00 0.00 56 1012.8
20260504173402 27 173 12.9 22.5 0.00 0.00 0.00 55 1012.8
20260504173303 27 186 11.3 25.7 0.00 0.00 0.00 55 1012.7
20260504173203 27 180 8.0 25.7 0.00 0.00 0.00 57 1012.8
20260504173102 27 255 9.7 25.7 0.00 0.00 0.00 57 1012.8
20260504173002 27 221 9.7 25.7 0.00 0.00 0.00 56 1012.9
20260504172903 27 209 8.0 25.7 0.00 0.00 0.00 56 1012.8
20260504172802 26 175 8.0 25.7 0.00 0.00 0.00 55 1012.8
20260504172703 27 185 8.0 25.7 0.00 0.00 0.00 55 1012.9
20260504172603 26 175 8.0 25.7 0.00 0.00 0.00 57 1013.0
20260504172505 26 206 16.1 25.7 0.00 0.00 0.00 57 1012.9
20260504172402 27 235 16.1 25.7 0.00 0.00 0.00 56 1013.0
20260504172303 27 224 11.3 25.7 0.00 0.00 0.00 57 1013.0
20260504172203 27 183 9.7 25.7 0.00 0.00 0.00 57 1013.0
20260504172102 26 135 11.3 25.7 0.00 0.00 0.00 57 1013.0
20260504172004 26 192 12.9 25.7 0.00 0.00 0.00 56 1013.1
20260504171902 26 197 9.7 25.7 0.00 0.00 0.00 57 1013.1
20260504171802 26 212 11.3 24.1 0.00 0.00 0.00 56 1013.1
20260504171703 26 183 14.5 24.1 0.00 0.00 0.00 56 1013.1
20260504171603 26 203 14.5 24.1 0.00 0.00 0.00 56 1013.2
20260504171506 26 206 11.3 24.1 0.00 0.00 0.00 55 1013.1
20260504171403 26 159 11.3 22.5 0.00 0.00 0.00 55 1013.1
20260504171303 26 164 12.9 24.1 0.00 0.00 0.00 54 1013.1
20260504171204 27 130 12.9 24.1 0.00 0.00 0.00 55 1013.2
20260504171103 27 161 11.3 24.1 0.00 0.00 0.00 56 1013.2
20260504171002 27 165 11.3 24.1 0.00 0.00 0.00 56 1013.1
20260504170903 26 192 11.3 24.1 0.00 0.00 0.00 56 1013.2
20260504170804 26 158 12.9 24.1 0.00 0.00 0.00 57 1013.3
20260504170701 26 176 11.3 24.1 0.00 0.00 0.00 57 1013.2
20260504170602 26 172 8.0 24.1 0.00 0.00 0.00 57 1013.1
20260504170505 26 134 8.0 24.1 0.00 0.00 0.00 57 1013.1
20260504170404 26 309 9.7 24.1 0.00 0.00 0.00 57 1013.1
20260504170303 26 195 11.3 22.5 0.00 0.00 0.00 58 1013.1
20260504170202 26 238 14.5 22.5 0.00 0.00 0.00 58 1013.3
20260504170104 26 199 14.5 22.5 0.00 0.00 0.00 57 1013.2
20260504160434 25 103 8.0 22.5 0.00 0.00 0.00 62 1014.0
20260504160334 25 204 11.3 24.1 0.00 0.00 0.00 61 1014.0
20260504160233 25 212 8.0 24.1 0.00 0.00 0.00 63 1014.0
20260504160134 25 164 6.4 24.1 0.00 0.00 0.00 63 1014.0
20260504151127 23 134 11.3 24.1 0.00 0.00 0.00 65 1014.2
20260504151026 23 102 14.5 25.7 0.00 0.00 0.00 65 1014.2
20260504150925 23 152 14.5 25.7 0.00 0.00 0.00 64 1014.2
20260504150824 23 104 12.9 25.7 0.00 0.00 0.00 65 1014.2
20260504150721 24 75 12.9 25.7 0.00 0.00 0.00 64 1014.1
20260504150621 23 190 9.7 25.7 0.00 0.00 0.00 65 1014.2
20260504150519 23 195 8.0 25.7 0.00 0.00 0.00 65 1014.1
20260504150415 23 190 9.7 25.7 0.00 0.00 0.00 65 1014.2
20260504150315 23 226 11.3 25.7 0.00 0.00 0.00 65 1014.2
20260504150215 23 243 14.5 25.7 0.00 0.00 0.00 64 1014.2
20260504150115 23 189 16.1 25.7 0.00 0.00 0.00 64 1014.3
20260504141332 22 159 6.4 16.1 0.00 0.00 0.00 67 1014.1
20260504141232 22 207 8.0 16.1 0.00 0.00 0.00 67 1014.1
20260504141131 22 175 8.0 16.1 0.00 0.00 0.00 67 1014.1
20260504141031 22 166 9.7 16.1 0.00 0.00 0.00 67 1014.0
20260504140933 22 183 9.7 16.1 0.00 0.00 0.00 67 1014.0
20260504140832 22 158 9.7 16.1 0.00 0.00 0.00 67 1014.1
20260504140731 22 171 6.4 14.5 0.00 0.00 0.00 67 1014.0
20260504140632 22 103 6.4 14.5 0.00 0.00 0.00 67 1014.1
20260504140530 22 173 8.0 16.1 0.00 0.00 0.00 67 1014.1
20260504140431 22 152 6.4 19.3 0.00 0.00 0.00 67 1014.2
20260504140331 21 175 4.8 19.3 0.00 0.00 0.00 68 1014.2
20260504140232 21 130 3.2 19.3 0.00 0.00 0.00 68 1014.2
20260504140131 21 75 4.8 19.3 0.00 0.00 0.00 68 1014.1
20260504130731 19 141 1.6 6.4 0.00 0.00 0.00 75 1014.3
20260504130630 18 131 1.6 8.0 0.00 0.00 0.00 75 1014.2
20260504130531 18 116 3.2 8.0 0.00 0.00 0.00 75 1014.3
20260504130431 18 166 3.2 8.0 0.00 0.00 0.00 75 1014.2
20260504130331 18 130 3.2 8.0 0.00 0.00 0.00 75 1014.3
20260504130230 18 130 3.2 8.0 0.00 0.00 0.00 75 1014.2
20260504130131 18 134 4.8 8.0 0.00 0.00 0.00 75 1014.3
20260504120303 16 32 0.0 0.0 0.00 0.00 0.00 80 1013.9
20260504120202 16 30 0.0 0.0 0.00 0.00 0.00 80 1013.8
20260504110629 16 30 0.0 0.0 0.00 0.00 0.00 80 1013.7
20260504110527 16 30 0.0 0.0 0.00 0.00 0.00 80 1013.7
20260504110428 16 28 0.0 0.0 0.00 0.00 0.00 80 1013.7
20260504110327 16 28 0.0 0.0 0.00 0.00 0.00 80 1013.7
20260504110229 16 28 0.0 0.0 0.00 0.00 0.00 80 1013.7
20260504110126 16 28 0.0 0.0 0.00 0.00 0.00 80 1013.8
20260504100526 16 25 1.6 6.4 0.00 0.00 0.00 80 1013.8
20260504100425 16 30 3.2 6.4 0.00 0.00 0.00 80 1013.9
20260504100326 16 24 3.2 6.4 0.00 0.00 0.00 80 1013.9
20260504100225 16 30 0.0 6.4 0.00 0.00 0.00 80 1013.9
20260504100127 16 25 0.0 1.6 0.00 0.00 0.00 80 1014.0
20260504090126 16 41 0.0 0.0 0.00 0.00 0.00 81 1014.4
20260504082004 16 35 0.0 0.0 0.00 0.00 0.00 80 1014.6
20260504081903 16 35 0.0 0.0 0.00 0.00 0.00 80 1014.5
20260504081802 16 35 0.0 0.0 0.00 0.00 0.00 80 1014.6
20260504081701 16 35 0.0 0.0 0.00 0.00 0.00 80 1014.7
20260504081602 16 37 0.0 0.0 0.00 0.00 0.00 80 1014.7
20260504081505 16 37 0.0 0.0 0.00 0.00 0.00 80 1014.7
20260504081404 16 35 0.0 0.0 0.00 0.00 0.00 80 1014.7
20260504081302 16 37 0.0 0.0 0.00 0.00 0.00 80 1014.8
20260504081204 16 35 0.0 0.0 0.00 0.00 0.00 80 1014.7
20260504081103 16 35 0.0 0.0 0.00 0.00 0.00 80 1014.6
20260504081003 16 35 0.0 0.0 0.00 0.00 0.00 80 1014.7
20260504080901 16 35 0.0 0.0 0.00 0.00 0.00 80 1014.6
20260504080803 16 35 0.0 0.0 0.00 0.00 0.00 79 1014.6
20260504080702 16 35 0.0 0.0 0.00 0.00 0.00 79 1014.6
20260504080602 16 35 0.0 0.0 0.00 0.00 0.00 79 1014.7
20260504080502 16 35 0.0 0.0 0.00 0.00 0.00 79 1014.8
20260504080403 16 35 0.0 0.0 0.00 0.00 0.00 79 1014.8
20260504080303 16 34 0.0 0.0 0.00 0.00 0.00 79 1014.8
20260504080203 16 37 0.0 0.0 0.00 0.00 0.00 79 1014.9
20260504070403 17 32 1.6 4.8 0.00 0.00 0.00 71 1015.6
20260504070303 17 34 1.6 4.8 0.00 0.00 0.00 71 1015.6
20260504070200 17 32 1.6 4.8 0.00 0.00 0.00 71 1015.6
20260504060221 17 27 0.0 4.8 0.00 0.00 0.00 70 1016.0
20260504060121 17 28 0.0 4.8 0.00 0.00 0.00 70 1016.0
20260504050220 18 27 3.2 4.8 0.00 0.00 0.00 69 1016.4
20260504050120 18 24 3.2 4.8 0.00 0.00 0.00 69 1016.5
20260504050020 18 28 1.6 4.8 0.00 0.00 0.00 69 1016.5
20260504045919 18 24 0.0 0.0 0.00 0.00 0.00 69 1016.5
20260504045820 18 24 0.0 1.6 0.00 0.00 0.00 69 1016.4
20260504045719 18 23 0.0 3.2 0.00 0.00 0.00 69 1016.4
20260504045618 18 25 0.0 3.2 0.00 0.00 0.00 69 1016.5
20260504045520 18 27 0.0 4.8 0.00 0.00 0.00 69 1016.4
20260504045420 18 25 0.0 4.8 0.00 0.00 0.00 69 1016.3
20260504045319 18 25 0.0 4.8 0.00 0.00 0.00 69 1016.4
20260504045218 18 27 0.0 4.8 0.00 0.00 0.00 68 1016.4
20260504045120 18 28 0.0 4.8 0.00 0.00 0.00 68 1016.5
20260504045019 18 30 0.0 4.8 0.00 0.00 0.00 68 1016.5
20260504044918 18 30 1.6 4.8 0.00 0.00 0.00 68 1016.5
20260504044819 18 30 1.6 4.8 0.00 0.00 0.00 68 1016.5
20260504044718 18 30 1.6 4.8 0.00 0.00 0.00 68 1016.5
20260504044619 18 30 1.6 4.8 0.00 0.00 0.00 68 1016.6
20260504044519 18 34 0.0 4.8 0.00 0.00 0.00 67 1016.5
20260504044420 18 32 0.0 4.8 0.00 0.00 0.00 67 1016.5
20260504044320 18 32 0.0 4.8 0.00 0.00 0.00 67 1016.6
20260504044219 18 31 0.0 6.4 0.00 0.00 0.00 67 1016.6
20260504044119 18 32 0.0 6.4 0.00 0.00 0.00 67 1016.6
20260504044019 18 32 1.6 6.4 0.00 0.00 0.00 67 1016.6
20260504043918 18 32 3.2 6.4 0.00 0.00 0.00 67 1016.5
20260504043816 18 32 3.2 6.4 0.00 0.00 0.00 67 1016.5
20260504043715 18 32 3.2 6.4 0.00 0.00 0.00 67 1016.6
20260504043612 18 34 1.6 6.4 0.00 0.00 0.00 67 1016.6
20260504043511 18 34 1.6 8.0 0.00 0.00 0.00 67 1016.5
20260504043408 18 24 3.2 8.0 0.00 0.00 0.00 67 1016.6
20260504043304 18 24 3.2 8.0 0.00 0.00 0.00 67 1016.6
20260504043202 18 27 1.6 8.0 0.00 0.00 0.00 67 1016.5
20260504043103 18 21 0.0 9.7 0.00 0.00 0.00 66 1016.5
20260504043004 18 30 0.0 9.7 0.00 0.00 0.00 66 1016.6
20260504042903 18 31 1.6 9.7 0.00 0.00 0.00 66 1016.6
20260504042801 18 31 3.2 9.7 0.00 0.00 0.00 66 1016.6
20260504042701 18 27 4.8 9.7 0.00 0.00 0.00 66 1016.7
20260504042603 18 34 4.8 9.7 0.00 0.00 0.00 66 1016.7
20260504042502 18 30 4.8 9.7 0.00 0.00 0.00 66 1016.6
20260504042403 18 31 3.2 9.7 0.00 0.00 0.00 66 1016.6
20260504042304 18 32 4.8 9.7 0.00 0.00 0.00 66 1016.6
20260504042203 18 32 4.8 9.7 0.00 0.00 0.00 66 1016.6
20260504042102 18 37 3.2 8.0 0.00 0.00 0.00 66 1016.6
20260504042003 18 30 3.2 8.0 0.00 0.00 0.00 66 1016.6
20260504041903 18 30 4.8 8.0 0.00 0.00 0.00 66 1016.6
20260504041803 18 34 6.4 8.0 0.00 0.00 0.00 66 1016.6
20260504041703 18 31 4.8 8.0 0.00 0.00 0.00 66 1016.6
20260504041602 18 30 4.8 8.0 0.00 0.00 0.00 66 1016.6
20260504041503 18 34 4.8 8.0 0.00 0.00 0.00 66 1016.6
20260504041403 18 25 3.2 8.0 0.00 0.00 0.00 66 1016.6
20260504041303 19 28 3.2 6.4 0.00 0.00 0.00 66 1016.6
20260504041203 19 28 3.2 6.4 0.00 0.00 0.00 66 1016.6
20260504041102 19 34 3.2 6.4 0.00 0.00 0.00 66 1016.6
20260504040959 18 35 3.2 6.4 0.00 0.00 0.00 66 1016.7
20260504040857 18 34 4.8 6.4 0.00 0.00 0.00 66 1016.6
20260504040756 18 35 3.2 6.4 0.00 0.00 0.00 66 1016.6
20260504040655 18 32 3.2 6.4 0.00 0.00 0.00 66 1016.7
20260504040552 18 31 3.2 6.4 0.00 0.00 0.00 66 1016.6
20260504040452 18 25 3.2 6.4 0.00 0.00 0.00 66 1016.5
20260504040349 18 25 3.2 6.4 0.00 0.00 0.00 66 1016.6
20260504040248 18 28 3.2 6.4 0.00 0.00 0.00 66 1016.6
20260504040148 18 27 3.2 6.4 0.00 0.00 0.00 66 1016.6
20260504040045 18 25 3.2 6.4 0.00 0.00 0.00 66 1016.6
20260504035945 18 31 3.2 6.4 0.00 0.00 0.00 66 1016.5
20260504035842 18 30 1.6 6.4 0.00 0.00 0.00 66 1016.5
20260504035741 18 28 1.6 6.4 0.00 0.00 0.00 66 1016.5
20260504035639 18 28 1.6 6.4 0.00 0.00 0.00 66 1016.5
20260504035538 18 28 1.6 6.4 0.00 0.00 0.00 66 1016.5
20260504035438 19 25 1.6 6.4 0.00 0.00 0.00 66 1016.5
20260504035335 19 27 3.2 6.4 0.00 0.00 0.00 66 1016.5
20260504035231 19 27 3.2 6.4 0.00 0.00 0.00 65 1016.5
20260504035132 19 30 3.2 6.4 0.00 0.00 0.00 65 1016.5
20260504035030 19 28 3.2 6.4 0.00 0.00 0.00 65 1016.5
20260504034932 19 28 3.2 6.4 0.00 0.00 0.00 66 1016.5
20260504034832 19 25 3.2 6.4 0.00 0.00 0.00 66 1016.5
20260504034731 19 24 3.2 6.4 0.00 0.00 0.00 66 1016.6
20260504034631 19 31 3.2 6.4 0.00 0.00 0.00 66 1016.7
20260504034531 18 27 3.2 6.4 0.00 0.00 0.00 66 1016.7
20260504034431 18 28 3.2 6.4 0.00 0.00 0.00 66 1016.7
20260504034332 18 30 3.2 6.4 0.00 0.00 0.00 66 1016.7
20260504034231 18 27 1.6 6.4 0.00 0.00 0.00 66 1016.7
20260504034132 19 28 0.0 6.4 0.00 0.00 0.00 66 1016.6
20260504034031 19 27 0.0 6.4 0.00 0.00 0.00 66 1016.6
20260504033931 19 28 0.0 6.4 0.00 0.00 0.00 66 1016.6
20260504033832 19 27 0.0 6.4 0.00 0.00 0.00 66 1016.6
20260504033731 19 27 0.0 6.4 0.00 0.00 0.00 65 1016.6
20260504033631 19 27 1.6 6.4 0.00 0.00 0.00 65 1016.6
20260504033531 19 28 3.2 6.4 0.00 0.00 0.00 65 1016.6
20260504033431 19 25 3.2 6.4 0.00 0.00 0.00 65 1016.6
20260504033332 19 21 3.2 6.4 0.00 0.00 0.00 65 1016.6
20260504033232 19 27 3.2 6.4 0.00 0.00 0.00 65 1016.6
20260504033132 19 27 3.2 6.4 0.00 0.00 0.00 65 1016.6
20260504033031 19 30 3.2 6.4 0.00 0.00 0.00 65 1016.6
20260504032931 19 30 3.2 6.4 0.00 0.00 0.00 65 1016.6
20260504032830 19 31 3.2 6.4 0.00 0.00 0.00 65 1016.6
20260504032732 19 31 3.2 6.4 0.00 0.00 0.00 65 1016.6
20260504032630 19 30 3.2 6.4 0.00 0.00 0.00 65 1016.7
20260504032530 19 32 3.2 6.4 0.00 0.00 0.00 65 1016.6
20260504032427 19 138 3.2 6.4 0.00 0.00 0.00 65 1016.6
20260504032326 19 148 3.2 6.4 0.00 0.00 0.00 65 1016.6
20260504032221 19 141 1.6 6.4 0.00 0.00 0.00 65 1016.6
20260504032119 19 106 1.6 6.4 0.00 0.00 0.00 64 1016.6
20260504032018 19 100 1.6 6.4 0.00 0.00 0.00 64 1016.6
20260504031917 19 100 3.2 6.4 0.00 0.00 0.00 64 1016.6
20260504031818 19 166 1.6 6.4 0.00 0.00 0.00 64 1016.5
20260504031717 20 137 1.6 8.0 0.00 0.00 0.00 63 1016.6
20260504031616 20 142 3.2 8.0 0.00 0.00 0.00 63 1016.5
20260504031516 20 133 3.2 8.0 0.00 0.00 0.00 63 1016.5
20260504031417 20 159 1.6 8.0 0.00 0.00 0.00 62 1016.5
20260504031317 20 131 1.6 8.0 0.00 0.00 0.00 62 1016.5
20260504031216 20 96 3.2 8.0 0.00 0.00 0.00 62 1016.5
20260504031116 20 140 3.2 11.3 0.00 0.00 0.00 62 1016.5
20260504031017 20 148 1.6 11.3 0.00 0.00 0.00 62 1016.5
20260504030916 20 147 3.2 11.3 0.00 0.00 0.00 62 1016.5
20260504030816 20 178 4.8 11.3 0.00 0.00 0.00 62 1016.5
20260504030718 20 120 4.8 11.3 0.00 0.00 0.00 62 1016.5
20260504030617 20 195 3.2 11.3 0.00 0.00 0.00 62 1016.5
20260504030517 20 171 3.2 11.3 0.00 0.00 0.00 62 1016.5
20260504030417 20 158 4.8 11.3 0.00 0.00 0.00 62 1016.5
20260504030317 20 172 4.8 11.3 0.00 0.00 0.00 62 1016.6
20260504030216 20 168 6.4 11.3 0.00 0.00 0.00 62 1016.5
20260504030116 20 149 3.2 11.3 0.00 0.00 0.00 62 1016.6
20260504030017 20 111 3.2 11.3 0.00 0.00 0.00 62 1016.5
20260504025916 20 164 4.8 11.3 0.00 0.00 0.00 62 1016.5
20260504025818 20 171 3.2 11.3 0.00 0.00 0.00 62 1016.5
20260504025717 20 140 3.2 11.3 0.00 0.00 0.00 61 1016.4
20260504025616 20 144 4.8 11.3 0.00 0.00 0.00 61 1016.4
20260504025517 20 161 4.8 11.3 0.00 0.00 0.00 61 1016.3
20260504025416 20 118 4.8 11.3 0.00 0.00 0.00 61 1016.4
20260504025318 20 193 6.4 11.3 0.00 0.00 0.00 61 1016.4
20260504025216 20 183 6.4 11.3 0.00 0.00 0.00 61 1016.4
20260504025116 20 159 4.8 11.3 0.00 0.00 0.00 61 1016.4
20260504025016 20 149 4.8 11.3 0.00 0.00 0.00 61 1016.5
20260504024916 20 147 6.4 11.3 0.00 0.00 0.00 61 1016.5
20260504024815 20 164 6.4 11.3 0.00 0.00 0.00 61 1016.4
20260504024716 20 155 4.8 11.3 0.00 0.00 0.00 60 1016.4
20260504024617 20 159 3.2 11.3 0.00 0.00 0.00 60 1016.3
20260504024517 20 169 6.4 11.3 0.00 0.00 0.00 60 1016.4
20260504024416 20 169 6.4 11.3 0.00 0.00 0.00 60 1016.4
20260504024317 20 169 6.4 11.3 0.00 0.00 0.00 60 1016.4
20260504024215 20 200 6.4 14.5 0.00 0.00 0.00 60 1016.4
20260504024117 20 154 6.4 14.5 0.00 0.00 0.00 60 1016.4
20260504024018 20 116 6.4 14.5 0.00 0.00 0.00 59 1016.4
20260504023916 20 164 6.4 16.1 0.00 0.00 0.00 59 1016.5
20260504023816 20 168 4.8 16.1 0.00 0.00 0.00 59 1016.5
20260504023715 20 128 4.8 16.1 0.00 0.00 0.00 59 1016.5
20260504023616 20 140 6.4 16.1 0.00 0.00 0.00 59 1016.5
20260504023516 21 151 4.8 16.1 0.00 0.00 0.00 59 1016.4
20260504023417 21 159 6.4 16.1 0.00 0.00 0.00 59 1016.6
20260504023315 21 182 8.0 16.1 0.00 0.00 0.00 58 1016.4
20260504023217 21 193 6.4 16.1 0.00 0.00 0.00 58 1016.5
20260504023115 21 196 8.0 16.1 0.00 0.00 0.00 58 1016.5
20260504023015 21 186 6.4 16.1 0.00 0.00 0.00 58 1016.4
20260504022917 21 192 6.4 16.1 0.00 0.00 0.00 58 1016.5
20260504022817 21 168 8.0 16.1 0.00 0.00 0.00 58 1016.4
20260504022715 21 141 6.4 16.1 0.00 0.00 0.00 58 1016.4
20260504022616 21 151 8.0 16.1 0.00 0.00 0.00 58 1016.4
20260504022518 21 144 8.0 16.1 0.00 0.00 0.00 58 1016.4
20260504022417 21 199 8.0 16.1 0.00 0.00 0.00 58 1016.4
20260504022316 21 158 8.0 16.1 0.00 0.00 0.00 58 1016.4
20260504022216 21 148 8.0 16.1 0.00 0.00 0.00 58 1016.4
20260504022116 21 207 6.4 16.1 0.00 0.00 0.00 58 1016.3
20260504022015 21 169 6.4 16.1 0.00 0.00 0.00 58 1016.2
20260504021915 21 199 6.4 16.1 0.00 0.00 0.00 58 1016.2
20260504021817 21 155 8.0 24.1 0.00 0.00 0.00 58 1016.2
20260504021717 21 172 8.0 24.1 0.00 0.00 0.00 58 1016.2
20260504021615 21 165 6.4 24.1 0.00 0.00 0.00 58 1016.2
20260504021516 21 138 6.4 24.1 0.00 0.00 0.00 57 1016.3
20260504021416 21 107 8.0 24.1 0.00 0.00 0.00 57 1016.2
20260504021316 21 140 6.4 24.1 0.00 0.00 0.00 57 1016.2
20260504021217 21 137 4.8 24.1 0.00 0.00 0.00 57 1016.3
20260504021115 21 113 6.4 24.1 0.00 0.00 0.00 57 1016.3
20260504021015 21 168 8.0 24.1 0.00 0.00 0.00 57 1016.2
20260504020914 21 138 9.7 24.1 0.00 0.00 0.00 57 1016.2
20260504020816 21 133 8.0 20.9 0.00 0.00 0.00 57 1016.2
20260504020715 21 199 6.4 20.9 0.00 0.00 0.00 57 1016.2
20260504020615 21 148 8.0 20.9 0.00 0.00 0.00 56 1016.2
20260504020516 21 168 9.7 20.9 0.00 0.00 0.00 56 1016.2
20260504020416 21 124 9.7 20.9 0.00 0.00 0.00 56 1016.2
20260504020315 21 159 8.0 20.9 0.00 0.00 0.00 56 1016.1
20260504020215 21 92 9.7 20.9 0.00 0.00 0.00 56 1016.1
20260504020116 21 180 12.9 20.9 0.00 0.00 0.00 56 1016.1
20260504020017 21 140 11.3 20.9 0.00 0.00 0.00 56 1016.1
20260504015914 21 155 8.0 16.1 0.00 0.00 0.00 56 1016.1
20260504015814 21 157 8.0 14.5 0.00 0.00 0.00 56 1016.1
20260504015711 21 124 6.4 14.5 0.00 0.00 0.00 56 1016.1
20260504015609 21 161 4.8 14.5 0.00 0.00 0.00 57 1016.1
20260504015509 21 197 6.4 14.5 0.00 0.00 0.00 57 1016.2
20260504015407 21 144 6.4 14.5 0.00 0.00 0.00 56 1016.2
20260504015308 21 162 6.4 14.5 0.00 0.00 0.00 56 1016.1
20260504015206 21 130 4.8 14.5 0.00 0.00 0.00 56 1016.1